TimeMDT,TemperatureF,Dew PointF,Humidity,Sea Level PressureIn,VisibilityMPH,Wind Direction,Wind SpeedMPH,Gust SpeedMPH,PrecipitationIn,Events,Conditions,WindDirDegrees,DateUTC
12:55 AM,69.8,53.6,56,29.97,25.0,SSE,16.1,-,N/A,,Scattered Clouds,150,2013-07-24 06:55:00
1:55 AM,68.0,51.8,56,29.97,25.0,SE,10.4,-,N/A,,Scattered Clouds,140,2013-07-24 07:55:00
2:55 AM,66.2,51.8,60,29.96,25.0,SSE,11.5,-,N/A,,Scattered Clouds,150,2013-07-24 08:55:00
3:55 AM,68.0,55.4,64,29.96,25.0,SSW,11.5,-,N/A,,Scattered Clouds,200,2013-07-24 09:55:00
4:55 AM,68.0,59.0,73,29.97,25.0,SW,8.1,-,N/A,,Scattered Clouds,220,2013-07-24 10:55:00
5:55 AM,66.2,59.0,78,29.98,25.0,West,3.5,-,N/A,,Mostly Cloudy,280,2013-07-24 11:55:00
6:55 AM,66.2,59.0,78,29.98,25.0,SSW,2.3,-,N/A,,Scattered Clouds,210,2013-07-24 12:55:00
7:55 AM,69.8,59.0,68,29.99,25.0,SSW,1.2,-,N/A,,Mostly Cloudy,210,2013-07-24 13:55:00
8:55 AM,75.2,57.2,53,29.99,25.0,South,6.9,-,N/A,,Mostly Cloudy,180,2013-07-24 14:55:00
9:55 AM,78.8,59.0,51,29.99,25.0,SSE,19.6,23.0,N/A,,Mostly Cloudy,160,2013-07-24 15:55:00
10:55 AM,78.8,59.0,51,30.00,25.0,SE,12.7,-,N/A,,Mostly Cloudy,140,2013-07-24 16:55:00
11:55 AM,80.6,59.0,48,29.99,25.0,South,11.5,18.4,N/A,,Mostly Cloudy,170,2013-07-24 17:55:00
12:55 PM,82.4,59.0,45,29.96,25.0,South,19.6,-,N/A,,Mostly Cloudy,180,2013-07-24 18:55:00
1:55 PM,77.0,59.0,54,29.97,10.0,South,17.3,-,N/A,,Mostly Cloudy,190,2013-07-24 19:55:00
2:55 PM,75.2,60.8,61,29.98,10.0,SSW,6.9,-,N/A,,Overcast,200,2013-07-24 20:55:00
3:01 PM,75.2,60.8,61,30.20,7.0,South,10.4,-,N/A,Rain,Light Rain Showers,190,2013-07-24 21:01:00
3:55 PM,75.2,57.2,53,29.99,7.0,SW,15.0,-,N/A,Rain,Light Rain Showers,230,2013-07-24 21:55:00
4:55 PM,71.6,51.8,50,30.01,7.0,SSW,21.9,32.2,N/A,,Mostly Cloudy,210,2013-07-24 22:55:00
5:55 PM,78.8,48.2,34,29.91,7.0,SSW,15.0,-,N/A,,Mostly Cloudy,200,2013-07-24 23:55:00
6:55 PM,75.2,48.2,38,29.93,7.0,SSW,15.0,-,N/A,,Mostly Cloudy,210,2013-07-25 00:55:00
7:55 PM,73.4,48.2,41,29.92,7.0,South,12.7,-,N/A,,Mostly Cloudy,170,2013-07-25 01:55:00
8:55 PM,71.6,50.0,46,29.93,7.0,SSE,13.8,-,N/A,,Mostly Cloudy,150,2013-07-25 02:55:00
9:55 PM,71.6,48.2,43,29.94,7.0,SSE,15.0,-,N/A,,Mostly Cloudy,160,2013-07-25 03:55:00
10:55 PM,69.8,51.8,53,29.96,10.0,SW,9.2,-,N/A,,Mostly Cloudy,220,2013-07-25 04:55:00
11:55 PM,64.4,53.6,68,29.98,10.0,SSW,15.0,-,N/A,,Mostly Cloudy,210,2013-07-25 05:55:00